Location: Brookfield Center
(41.2406°N, 80.5579°W)
Time: 22:47:51
(UTC+00:00)

Cosmos 2074 Rocket - Pass Details

Date: 18 January 2020
Orbit: 966 x 987 km, 82.9° (Epoch: 17 February)

Event Time Altitude Azimuth Distance (km) Brightness Sun altitude
Exits shadow 11:02:26 - 338° (NNW) 2,794 6.1 -18.9°
Reaches altitude 10° 11:02:36 10° 337° (NNW) 2,734 6.0 -18.9°
Maximum altitude 11:08:17 38° 272° (W) 1,450 4.4 -17.8°
Drops below altitude 10° 11:13:54 10° 206° (SSW) 2,705 6.2 -16.8°
Sets 11:16:34 0° 199° (SSW) 3,646 6.9 -16.3°
